Location: Calvatone
(45.1167°N, 10.4333°E)
Time: 11:42:51
(UTC+00:00)

Cosmos 1634 Rocket - Pass Details

Date: 28 January 2023
Orbit: 960 x 991 km, 82.9° (Epoch: 30 March)

Event Time Altitude Azimuth Distance (km) Brightness Sun altitude
Rises 16:42:45 0° 189° (S) 3,675 7.5 -4.6°
Reaches altitude 10° 16:45:15 10° 190° (S) 2,727 6.8 -5.0°
Maximum altitude 16:51:31 81° 277° (W) 993 4.2 -6.0°
Drops below altitude 10° 16:57:47 10° 6° (N) 2,723 6.1 -7.1°
Sets 17:00:18 0° 8° (N) 3,670 6.7 -7.5°
